Regional Weather Roundup
Issued by NWS Green Bay, WI

Home | Current Version | Previous Version | Text Only | Print | Product List | Glossary On
Versions: 1 2 3 4 5 6 7 8 9 10 11 12 13 14 15 16 17 18 19 20 21 22 23 24 25 26 27 28 29 30 31 32 33 34 35 36 37 38 39 40 41 42 43 44 45 46 47 48 49 50
000
ASUS43 KGRB 132111
RWRGRB

NORTH-CENTRAL AND NORTHEAST WISCONSIN REGIONAL WEATHER ROUNDUP
NATIONAL WEATHER SERVICE GREEN BAY WI
300 PM CST SAT FEB 13 2016

WIZ005-009-010>012-018-019-132200-
NORTH CENTRAL WISCONSIN

CITY           SKY/WX    TMP DP  RH WIND       PRES   REMARKS
IRONWOOD       SUNNY      5  -6  61 W9        30.41F WCI  -9
MANITOWISH WTR SUNNY      7  -8  51 W9        30.38F WCI  -7
ARBOR VITAE    SUNNY      9  -6  49 W6        30.38F WCI  -1
EAGLE RIVER    SUNNY      9  -7  49 NW9       30.37S WCI  -4
LAND O LAKES   PTSUNNY   10  -3  54 NW6       30.37F WCI   1
RHINELANDER    SUNNY      9  -6  50 W9        30.39F WCI  -4
PHILLIPS       SUNNY      9 -11  41 W3        30.41F
ANTIGO         SUNNY      9  -6  48 W9        30.39F WCI  -4
TOMAHAWK       SUNNY     10 -11  39 W8        30.41F WCI  -3
MERRILL        SUNNY     11  -8  40 W6        30.43F WCI   2
$$

WIZ013-073-132200-
NORTHEAST WISCONSIN

CITY           SKY/WX    TMP DP  RH WIND       PRES   REMARKS
IRON MOUNTAIN  SUNNY     11  -6  46 NW10      30.39F WCI  -3
MARINETTE      SUNNY     12  -6  44 N9        30.46S WCI   0
OCONTO         SUNNY     13  -6  42 W6        30.48R WCI   4
$$

WIZ017-030-035>037-045-132200-
CENTRAL WISCONSIN

CITY           SKY/WX    TMP DP  RH WIND       PRES   REMARKS
MEDFORD        SUNNY      7 -11  42 W7        30.42F WCI  -4
WAUSAU         SUNNY      7  -8  50 W9        30.44F WCI  -7
MOSINEE        SUNNY      7  -8  51 W6        30.47F WCI  -3
MARSHFIELD     SUNNY      7 -11  43 NW8       30.45F WCI  -6
WISC RAPIDS    SUNNY     10 -12  36 NW7       30.50F WCI  -1
STEVENS POINT  SUNNY      6 -10  48 W6        30.48S WCI  -5
WAUPACA        SUNNY     14  -7  38 W10       30.50S WCI   1
SHAWANO        SUNNY     15  -6  37 W6        30.47F WCI   7
CLINTONVILLE   SUNNY     12  -9  37 W10       30.48S WCI  -1
WAUTOMA        SUNNY     12  -9  38 W9        30.51F WCI   0
$$

WIZ038-039-048-051-132200-
FOX VALLEY

CITY           SKY/WX    TMP DP  RH WIND       PRES   REMARKS
NWS GREEN BAY  SUNNY     10  -6  48 SW7       30.50S WCI  -1
APPLETON       MOSUNNY   10  -9  40 SW10      30.47S WCI  -3
OSHKOSH        SUNNY     10  -6  48 W5        30.50F WCI   2
FOND DU LAC    SUNNY      9  -7  48 W8        30.51F WCI  -3
$$

WIZ022-050-052-132200-
EAST CENTRAL WISCONSIN

CITY           SKY/WX    TMP DP  RH WIND       PRES   REMARKS
EPHRAIM        FAIR      11  -6  47 NW9       30.44S WCI  -2
STURGEON BAY   SUNNY     10  -6  48 W7        30.49R WCI   0
MANITOWOC      SUNNY     11  -5  48 W9        30.51S WCI  -2
SHEBOYGAN      SUNNY      9  -5  53 W10       30.51S WCI  -5
$$

LMZ563-521-522-541>543-132200-
LAKESHORE

STATION/POSITION TIME  TEMP    WIND        PRES    VSBY  WAVE
                       AIR SEA DIR/SP/G                  HT/PER
                 (UTC) (F)     (DEG/KT/KT) (MB)    (MI)  (FT/S)
SHEBOYGAN LKSHOR 2100    9     270/ 11/ 13 1035.2R
KEWAUNEE LKSHORE 2000    9     300/  6/ 11 1031.5F
SISTER BAY LKSHO 2049   18     340/  9/ 11   N/A
CHAMBERS ISLAND  2000   15     310/  7/ 10 1031.5F
MENOMINEE LKSHOR 2000   13     310/  5     1030.3F
$$



USA.gov is the U.S. government's official web portal to all federal, state and local government web resources and services.